Terminal Aerodrome Forecast
Issued by NWS

Current Version | Previous Version | Text Only | Print | Product List | Glossary Off
Versions: 1 2 3 4 5 6 7 8 9 10 11 12 13 14 15 16 17 18 19 20 21 22 23 24 25 26

000
FTUS41 KPBZ 261048 AAA
TAFMGW
TAF AMD
KMGW 261048Z 2611/2706 22005KT P6SM SCT080
     FM261200 24010G20KT P6SM VCSH BKN035
      TEMPO 2612/2614 5SM -SHRA
     FM262000 32012G18KT P6SM BKN050
      TEMPO 2620/2622 VRB15G30KT 3SM TSRA BKN050CB
     FM262200 32011KT P6SM BKN050=

USA.gov is the U.S. government's official web portal to all federal, state and local government web resources and services.